Time,TemperatureF,DewpointF,PressureIn,WindDirection,WindDirectionDegrees,WindSpeedMPH,WindSpeedGustMPH,Humidity,HourlyPrecipIn,Conditions,Clouds,dailyrainin,SoftwareType,DateUTC
2013-01-24 00:01:00,16.3,11.8,30.10,ESE,111,0.0,0.0,82,0.00,,SKC,0.00,VWS V14.01,2013-01-24 05:01:00,
2013-01-24 00:02:00,16.3,11.8,30.10,ESE,111,0.0,0.0,82,0.00,,SKC,0.00,VWS V14.01,2013-01-24 05:02:00,
2013-01-24 00:03:00,16.3,12.1,30.10,ESE,111,0.0,0.0,83,0.00,,SKC,0.00,VWS V14.01,2013-01-24 05:03:00,
2013-01-24 00:08:00,16.3,12.1,30.09,ESE,111,0.0,0.0,83,0.00,,SKC,0.00,VWS V14.01,2013-01-24 05:08:00,
2013-01-24 00:13:00,16.3,12.1,30.09,ESE,111,0.0,0.0,83,0.00,,SKC,0.00,VWS V14.01,2013-01-24 05:13:00,
2013-01-24 00:18:00,16.2,12.0,30.09,ESE,111,0.0,0.0,83,0.00,,SKC,0.00,VWS V14.01,2013-01-24 05:18:00,
2013-01-24 00:23:00,16.2,12.0,30.08,ESE,111,0.0,0.0,83,0.00,,SKC,0.00,VWS V14.01,2013-01-24 05:23:00,
2013-01-24 00:28:00,16.1,11.9,30.08,ESE,111,0.0,0.0,83,0.00,,SKC,0.00,VWS V14.01,2013-01-24 05:28:00,
2013-01-24 00:33:00,16.1,11.9,30.08,ESE,111,0.0,0.0,83,0.00,,SKC,0.00,VWS V14.01,2013-01-24 05:33:00,
2013-01-24 00:38:00,16.1,11.9,30.08,ESE,111,0.0,0.0,83,0.00,,SKC,0.00,VWS V14.01,2013-01-24 05:38:00,
2013-01-24 00:43:00,16.0,12.0,30.08,ESE,111,0.0,0.0,84,0.00,,SKC,0.00,VWS V14.01,2013-01-24 05:43:00,
2013-01-24 00:48:00,16.0,12.0,30.08,ESE,111,0.0,0.0,84,0.00,,SKC,0.00,VWS V14.01,2013-01-24 05:48:00,
2013-01-24 00:53:00,16.0,12.0,30.07,ESE,111,0.0,0.0,84,0.00,,SKC,0.00,VWS V14.01,2013-01-24 05:53:00,
2013-01-24 00:58:00,16.0,12.0,30.07,ESE,111,0.0,0.0,84,0.00,,SKC,0.00,VWS V14.01,2013-01-24 05:58:00,
2013-01-24 01:03:00,16.0,12.0,30.07,ESE,111,0.0,0.0,84,0.00,,SKC,0.00,VWS V14.01,2013-01-24 06:03:00,
2013-01-24 01:08:00,16.0,12.0,30.07,ESE,111,0.0,0.0,84,0.00,,SKC,0.00,VWS V14.01,2013-01-24 06:08:00,
2013-01-24 01:13:00,16.0,12.0,30.07,ESE,111,0.0,0.0,84,0.00,,SKC,0.00,VWS V14.01,2013-01-24 06:13:00,
2013-01-24 01:18:00,16.0,12.0,30.07,ESE,111,0.0,0.0,84,0.00,,SKC,0.00,VWS V14.01,2013-01-24 06:18:00,
2013-01-24 01:23:00,16.0,12.0,30.07,ESE,111,0.0,0.0,84,0.00,,SKC,0.00,VWS V14.01,2013-01-24 06:23:00,
2013-01-24 01:28:00,16.0,12.0,30.07,ESE,111,0.0,0.0,84,0.00,,SKC,0.00,VWS V14.01,2013-01-24 06:28:00,
2013-01-24 01:33:00,16.0,12.3,30.07,ESE,111,0.0,0.0,85,0.00,,SKC,0.00,VWS V14.01,2013-01-24 06:33:00,
2013-01-24 01:38:00,16.0,12.3,30.07,ESE,111,0.0,0.0,85,0.00,,SKC,0.00,VWS V14.01,2013-01-24 06:38:00,
2013-01-24 01:43:00,16.0,12.3,30.07,ESE,111,0.0,0.0,85,0.00,,SKC,0.00,VWS V14.01,2013-01-24 06:43:00,
2013-01-24 01:48:00,15.9,12.2,30.07,ESE,111,0.0,0.0,85,0.00,,SKC,0.00,VWS V14.01,2013-01-24 06:48:00,
2013-01-24 01:53:00,15.9,12.2,30.07,ESE,111,0.0,0.0,85,0.00,,SKC,0.00,VWS V14.01,2013-01-24 06:53:00,
2013-01-24 01:58:00,15.8,12.1,30.07,ESE,111,0.0,0.0,85,0.00,,SKC,0.00,VWS V14.01,2013-01-24 06:58:00,
2013-01-24 02:03:00,15.7,12.0,30.07,ESE,111,0.0,0.0,85,0.00,,SKC,0.00,VWS V14.01,2013-01-24 07:03:00,
2013-01-24 02:08:00,15.7,12.0,30.07,ESE,111,0.0,0.0,85,0.00,,SKC,0.00,VWS V14.01,2013-01-24 07:08:00,
2013-01-24 02:13:00,15.6,11.9,30.07,ESE,111,0.0,0.0,85,0.00,,SKC,0.00,VWS V14.01,2013-01-24 07:13:00,
2013-01-24 02:18:00,15.6,11.9,30.06,ESE,111,0.0,0.0,85,0.00,,SKC,0.00,VWS V14.01,2013-01-24 07:18:00,
2013-01-24 02:23:00,15.5,11.8,30.06,ESE,111,0.0,0.0,85,0.00,,SKC,0.00,VWS V14.01,2013-01-24 07:23:00,
2013-01-24 02:28:00,15.5,11.8,30.07,ESE,111,0.0,0.0,85,0.00,,SKC,0.00,VWS V14.01,2013-01-24 07:28:00,
2013-01-24 02:33:00,15.5,11.8,30.07,ESE,111,0.0,0.0,85,0.00,,SKC,0.00,VWS V14.01,2013-01-24 07:33:00,
2013-01-24 02:38:00,15.5,12.1,30.06,ESE,111,0.0,0.0,86,0.00,,SKC,0.00,VWS V14.01,2013-01-24 07:38:00,
2013-01-24 02:43:00,15.5,12.1,30.07,ESE,111,0.0,0.0,86,0.00,,SKC,0.00,VWS V14.01,2013-01-24 07:43:00,
2013-01-24 02:48:00,15.5,12.1,30.07,ESE,111,0.0,0.0,86,0.00,,SKC,0.00,VWS V14.01,2013-01-24 07:48:00,
2013-01-24 02:53:00,15.4,12.0,30.08,ESE,111,0.0,0.0,86,0.00,,SKC,0.00,VWS V14.01,2013-01-24 07:53:00,
2013-01-24 02:58:00,15.4,12.0,30.08,ESE,110,0.0,0.0,86,0.00,,SKC,0.00,VWS V14.01,2013-01-24 07:58:00,
2013-01-24 03:03:00,15.3,11.9,30.08,ESE,110,0.0,0.0,86,0.00,,SKC,0.00,VWS V14.01,2013-01-24 08:03:00,
2013-01-24 03:08:00,15.1,11.7,30.08,ESE,110,0.0,0.0,86,0.00,,SKC,0.00,VWS V14.01,2013-01-24 08:08:00,
2013-01-24 03:13:00,15.0,11.6,30.08,ESE,110,0.0,0.0,86,0.00,,SKC,0.00,VWS V14.01,2013-01-24 08:13:00,
2013-01-24 03:18:00,15.0,11.6,30.08,ESE,110,0.0,0.0,86,0.00,,SKC,0.00,VWS V14.01,2013-01-24 08:18:00,
2013-01-24 03:23:00,14.9,11.5,30.09,ESE,110,0.0,0.0,86,0.00,,SKC,0.00,VWS V14.01,2013-01-24 08:23:00,
2013-01-24 03:28:00,14.8,11.4,30.08,East,90,0.0,0.0,86,0.00,,SKC,0.00,VWS V14.01,2013-01-24 08:28:00,
2013-01-24 03:33:00,14.8,11.4,30.09,NNE,32,0.0,0.0,86,0.00,,SKC,0.00,VWS V14.01,2013-01-24 08:33:00,
2013-01-24 03:38:00,14.8,11.4,30.09,NE,38,0.0,0.0,86,0.00,,SKC,0.00,VWS V14.01,2013-01-24 08:38:00,
2013-01-24 03:43:00,14.8,11.4,30.09,NE,35,0.0,0.0,86,0.00,,SKC,0.00,VWS V14.01,2013-01-24 08:43:00,
2013-01-24 03:48:00,14.8,11.4,30.09,NE,35,0.0,0.0,86,0.00,,SKC,0.00,VWS V14.01,2013-01-24 08:48:00,
2013-01-24 03:53:00,14.8,11.4,30.09,NE,34,0.0,0.0,86,0.00,,SKC,0.00,VWS V14.01,2013-01-24 08:53:00,
2013-01-24 03:58:00,14.8,11.4,30.08,NE,35,0.0,1.0,86,0.00,,SKC,0.00,VWS V14.01,2013-01-24 08:58:00,
2013-01-24 04:03:00,14.8,11.4,30.09,NNE,32,0.0,1.0,86,0.00,,SKC,0.00,VWS V14.01,2013-01-24 09:03:00,
2013-01-24 04:08:00,14.8,11.6,30.09,North,360,0.0,1.0,87,0.00,,SKC,0.00,VWS V14.01,2013-01-24 09:08:00,
2013-01-24 04:13:00,14.7,11.5,30.09,NNE,13,0.0,2.0,87,0.00,,SKC,0.00,VWS V14.01,2013-01-24 09:13:00,
2013-01-24 04:18:00,14.6,11.4,30.09,NNE,22,0.0,0.0,87,0.00,,SKC,0.00,VWS V14.01,2013-01-24 09:18:00,
2013-01-24 04:23:00,14.6,11.4,30.10,NNE,22,0.0,1.0,87,0.00,,SKC,0.00,VWS V14.01,2013-01-24 09:23:00,
2013-01-24 04:28:00,14.5,11.3,30.10,North,360,2.0,3.0,87,0.00,,SKC,0.00,VWS V14.01,2013-01-24 09:28:00,
2013-01-24 04:33:00,14.5,11.3,30.10,North,5,5.0,5.0,87,0.00,,SKC,0.00,VWS V14.01,2013-01-24 09:33:00,
2013-01-24 04:38:00,14.4,11.2,30.11,NNE,18,0.0,2.0,87,0.00,,SKC,0.00,VWS V14.01,2013-01-24 09:38:00,
2013-01-24 04:43:00,14.3,11.1,30.11,NNE,32,4.0,4.0,87,0.00,,SKC,0.00,VWS V14.01,2013-01-24 09:43:00,
2013-01-24 04:48:00,14.3,11.1,30.11,North,11,2.0,2.0,87,0.00,,SKC,0.00,VWS V14.01,2013-01-24 09:48:00,
2013-01-24 04:53:00,14.2,11.1,30.12,NNE,13,4.0,4.0,87,0.00,,SKC,0.00,VWS V14.01,2013-01-24 09:53:00,
2013-01-24 04:58:00,14.1,10.9,30.12,NNE,23,0.0,2.0,87,0.00,,SKC,0.00,VWS V14.01,2013-01-24 09:58:00,
2013-01-24 05:03:00,14.1,10.9,30.13,NE,43,0.0,1.0,87,0.00,,SKC,0.00,VWS V14.01,2013-01-24 10:03:00,
2013-01-24 05:08:00,14.1,10.9,30.13,NE,35,0.0,0.0,87,0.00,,SKC,0.00,VWS V14.01,2013-01-24 10:08:00,
2013-01-24 05:13:00,14.0,10.9,30.14,NNE,23,0.0,1.0,87,0.00,,SKC,0.00,VWS V14.01,2013-01-24 10:13:00,
2013-01-24 05:18:00,14.0,10.9,30.14,NNE,23,0.0,0.0,87,0.00,,SKC,0.00,VWS V14.01,2013-01-24 10:18:00,
2013-01-24 05:23:00,14.0,10.9,30.14,NNE,23,0.0,0.0,87,0.00,,SKC,0.00,VWS V14.01,2013-01-24 10:23:00,
2013-01-24 05:28:00,14.0,10.9,30.14,NNE,23,0.0,0.0,87,0.00,,SKC,0.00,VWS V14.01,2013-01-24 10:28:00,
2013-01-24 05:33:00,14.0,10.9,30.15,North,5,0.0,0.0,87,0.00,,SKC,0.00,VWS V14.01,2013-01-24 10:33:00,
2013-01-24 05:38:00,14.0,10.9,30.16,North,5,0.0,0.0,87,0.00,,SKC,0.00,VWS V14.01,2013-01-24 10:38:00,
2013-01-24 05:43:00,14.0,10.9,30.16,North,5,0.0,0.0,87,0.00,,SKC,0.00,VWS V14.01,2013-01-24 10:43:00,
2013-01-24 05:48:00,14.1,10.9,30.17,NE,38,0.0,1.0,87,0.00,,SKC,0.00,VWS V14.01,2013-01-24 10:48:00,
2013-01-24 05:53:00,14.0,10.9,30.17,NE,35,0.0,1.0,87,0.00,,SKC,0.00,VWS V14.01,2013-01-24 10:53:00,
2013-01-24 05:58:00,14.1,10.9,30.17,NE,46,0.0,1.0,87,0.00,,SKC,0.00,VWS V14.01,2013-01-24 10:58:00,
2013-01-24 06:03:00,14.0,10.9,30.18,NE,46,0.0,0.0,87,0.00,,SKC,0.00,VWS V14.01,2013-01-24 11:03:00,
2013-01-24 06:08:00,14.0,10.9,30.18,NE,46,0.0,0.0,87,0.00,,SKC,0.00,VWS V14.01,2013-01-24 11:08:00,
2013-01-24 06:13:00,14.0,10.9,30.19,North,5,0.0,0.0,87,0.00,,SKC,0.00,VWS V14.01,2013-01-24 11:13:00,
2013-01-24 06:18:00,14.0,10.9,30.19,North,5,0.0,0.0,87,0.00,,SKC,0.00,VWS V14.01,2013-01-24 11:18:00,
2013-01-24 06:23:00,14.0,10.9,30.20,North,360,0.0,0.0,87,0.00,,SKC,0.00,VWS V14.01,2013-01-24 11:23:00,
2013-01-24 06:28:00,13.9,10.8,30.20,NNE,28,2.0,2.0,87,0.00,,SKC,0.00,VWS V14.01,2013-01-24 11:28:00,
2013-01-24 06:33:00,13.9,10.8,30.21,NNE,16,0.0,0.0,87,0.00,,SKC,0.00,VWS V14.01,2013-01-24 11:33:00,
2013-01-24 06:38:00,13.9,10.8,30.21,NNE,16,0.0,0.0,87,0.00,,SKC,0.00,VWS V14.01,2013-01-24 11:38:00,
2013-01-24 06:43:00,13.9,10.8,30.21,NNE,16,0.0,0.0,87,0.00,,SKC,0.00,VWS V14.01,2013-01-24 11:43:00,
2013-01-24 06:48:00,13.9,10.8,30.22,NNE,16,0.0,0.0,87,0.00,,SKC,0.00,VWS V14.01,2013-01-24 11:48:00,
2013-01-24 06:53:00,13.9,10.8,30.23,NNE,16,0.0,1.0,87,0.00,,SKC,0.00,VWS V14.01,2013-01-24 11:53:00,
2013-01-24 06:58:00,13.9,10.8,30.23,NNE,14,0.0,1.0,87,0.00,,SKC,0.00,VWS V14.01,2013-01-24 11:58:00,
2013-01-24 07:03:00,13.9,10.8,30.24,NNE,13,0.0,1.0,87,0.00,,SKC,0.00,VWS V14.01,2013-01-24 12:03:00,
2013-01-24 07:08:00,13.9,10.8,30.24,NNE,13,0.0,1.0,87,0.00,,SKC,0.00,VWS V14.01,2013-01-24 12:08:00,
2013-01-24 07:13:00,13.9,10.8,30.25,NNE,13,1.0,2.0,87,0.00,,SKC,0.00,VWS V14.01,2013-01-24 12:13:00,
2013-01-24 07:18:00,13.8,10.6,30.25,North,5,1.0,1.0,87,0.00,,SKC,0.00,VWS V14.01,2013-01-24 12:18:00,
2013-01-24 07:23:00,13.7,10.6,30.26,NNW,348,4.0,4.0,87,0.00,,SKC,0.00,VWS V14.01,2013-01-24 12:23:00,
2013-01-24 07:28:00,13.6,10.5,30.26,NNE,29,0.0,1.0,87,0.00,,SKC,0.00,VWS V14.01,2013-01-24 12:28:00,
2013-01-24 07:33:00,13.6,10.5,30.26,NNE,24,0.0,0.0,87,0.00,,SKC,0.00,VWS V14.01,2013-01-24 12:33:00,
2013-01-24 07:38:00,13.5,10.4,30.27,NNE,24,0.0,0.0,87,0.00,,SKC,0.00,VWS V14.01,2013-01-24 12:38:00,
2013-01-24 07:43:00,13.4,10.3,30.28,NNE,24,0.0,0.0,87,0.00,,SKC,0.00,VWS V14.01,2013-01-24 12:43:00,
2013-01-24 07:48:00,13.4,10.3,30.28,NNE,24,0.0,0.0,87,0.00,,SKC,0.00,VWS V14.01,2013-01-24 12:48:00,
2013-01-24 07:53:00,13.3,10.2,30.29,NNE,24,0.0,0.0,87,0.00,,SKC,0.00,VWS V14.01,2013-01-24 12:53:00,
2013-01-24 07:58:00,13.3,10.2,30.29,NNE,18,0.0,0.0,87,0.00,,SKC,0.00,VWS V14.01,2013-01-24 12:58:00,
2013-01-24 08:03:00,13.2,10.1,30.29,NNE,18,0.0,0.0,87,0.00,,SKC,0.00,VWS V14.01,2013-01-24 13:03:00,
2013-01-24 08:08:00,13.2,10.1,30.29,NNE,18,0.0,0.0,87,0.00,,SKC,0.00,VWS V14.01,2013-01-24 13:08:00,
2013-01-24 08:13:00,13.2,10.1,30.30,NNE,18,0.0,1.0,87,0.00,,SKC,0.00,VWS V14.01,2013-01-24 13:13:00,
2013-01-24 08:18:00,13.2,10.1,30.30,NNE,18,0.0,0.0,87,0.00,,SKC,0.00,VWS V14.01,2013-01-24 13:18:00,
2013-01-24 08:23:00,13.2,10.1,30.31,NNE,19,0.0,0.0,87,0.00,,SKC,0.00,VWS V14.01,2013-01-24 13:23:00,
2013-01-24 08:28:00,13.2,10.1,30.31,NNE,30,0.0,0.0,87,0.00,,SKC,0.00,VWS V14.01,2013-01-24 13:28:00,
2013-01-24 08:33:00,13.2,10.1,30.32,NNE,30,0.0,0.0,87,0.00,,SKC,0.00,VWS V14.01,2013-01-24 13:33:00,
2013-01-24 08:38:00,13.2,10.1,30.32,NNE,30,0.0,0.0,87,0.00,,SKC,0.00,VWS V14.01,2013-01-24 13:38:00,
2013-01-24 08:43:00,13.2,10.1,30.33,NNE,30,0.0,0.0,87,0.00,,SKC,0.00,VWS V14.01,2013-01-24 13:43:00,
2013-01-24 08:48:00,13.3,10.2,30.33,NNE,29,0.0,0.0,87,0.00,,SKC,0.00,VWS V14.01,2013-01-24 13:48:00,
2013-01-24 08:53:00,13.3,10.2,30.33,NNE,29,0.0,0.0,87,0.00,,SKC,0.00,VWS V14.01,2013-01-24 13:53:00,
2013-01-24 08:58:00,13.4,10.3,30.34,NNE,29,0.0,0.0,87,0.00,,SKC,0.00,VWS V14.01,2013-01-24 13:58:00,
2013-01-24 09:03:00,13.4,10.3,30.34,NNE,29,0.0,0.0,87,0.00,,SKC,0.00,VWS V14.01,2013-01-24 14:03:00,
2013-01-24 09:08:00,13.4,10.3,30.35,NNE,29,0.0,0.0,87,0.00,,SKC,0.00,VWS V14.01,2013-01-24 14:08:00,
2013-01-24 09:13:00,13.5,10.4,30.35,NNE,29,0.0,0.0,87,0.00,,SKC,0.00,VWS V14.01,2013-01-24 14:13:00,
2013-01-24 09:18:00,13.6,10.2,30.35,NNE,30,0.0,0.0,86,0.00,,SKC,0.00,VWS V14.01,2013-01-24 14:18:00,
2013-01-24 09:23:00,13.7,10.6,30.36,NNE,29,0.0,0.0,87,0.00,,SKC,0.00,VWS V14.01,2013-01-24 14:23:00,
2013-01-24 09:28:00,13.7,10.3,30.36,NNE,25,0.0,0.0,86,0.00,,SKC,0.00,VWS V14.01,2013-01-24 14:28:00,
2013-01-24 09:33:00,13.8,10.4,30.36,NNE,21,0.0,0.0,86,0.00,,SKC,0.00,VWS V14.01,2013-01-24 14:33:00,
2013-01-24 09:38:00,13.9,10.5,30.36,North,360,0.0,4.0,86,0.00,,SKC,0.00,VWS V14.01,2013-01-24 14:38:00,
2013-01-24 09:43:00,13.9,10.5,30.37,North,360,0.0,0.0,86,0.00,,SKC,0.00,VWS V14.01,2013-01-24 14:43:00,
2013-01-24 09:48:00,14.0,10.3,30.37,SW,225,0.0,1.0,85,0.00,,SKC,0.00,VWS V14.01,2013-01-24 14:48:00,
2013-01-24 09:53:00,14.1,10.4,30.38,North,355,0.0,0.0,85,0.00,,SKC,0.00,VWS V14.01,2013-01-24 14:53:00,
2013-01-24 09:58:00,14.2,10.5,30.38,WNW,301,0.0,0.0,85,0.00,,SKC,0.00,VWS V14.01,2013-01-24 14:58:00,
2013-01-24 10:03:00,14.3,10.4,30.38,WSW,257,0.0,0.0,84,0.00,,SKC,0.00,VWS V14.01,2013-01-24 15:03:00,
2013-01-24 10:08:00,14.5,10.6,30.38,ESE,106,0.0,0.0,84,0.00,,SKC,0.00,VWS V14.01,2013-01-24 15:08:00,
2013-01-24 10:13:00,14.8,10.9,30.38,West,269,0.0,1.0,84,0.00,,SKC,0.00,VWS V14.01,2013-01-24 15:13:00,
2013-01-24 10:18:00,15.1,11.1,30.38,WNW,290,3.0,3.0,84,0.00,,SKC,0.00,VWS V14.01,2013-01-24 15:18:00,
2013-01-24 10:23:00,15.5,11.3,30.39,West,269,2.0,3.0,83,0.00,,SKC,0.00,VWS V14.01,2013-01-24 15:23:00,
2013-01-24 10:28:00,15.8,11.3,30.39,NNW,340,0.0,7.0,82,0.00,,SKC,0.00,VWS V14.01,2013-01-24 15:28:00,
2013-01-24 10:33:00,16.1,11.3,30.40,NW,322,1.0,1.0,81,0.00,,SKC,0.00,VWS V14.01,2013-01-24 15:33:00,
2013-01-24 10:38:00,16.2,10.8,30.40,WNW,290,0.0,3.0,79,0.00,,SKC,0.00,VWS V14.01,2013-01-24 15:38:00,
2013-01-24 10:43:00,16.3,10.7,30.40,North,11,0.0,0.0,78,0.00,,SKC,0.00,VWS V14.01,2013-01-24 15:43:00,
2013-01-24 10:48:00,16.4,10.5,30.41,ENE,68,3.0,6.0,77,0.00,,SKC,0.00,VWS V14.01,2013-01-24 15:48:00,
2013-01-24 10:53:00,16.7,10.8,30.41,NW,324,1.0,2.0,77,0.00,,SKC,0.00,VWS V14.01,2013-01-24 15:53:00,
2013-01-24 10:58:00,16.8,10.3,30.41,ENE,59,0.0,0.0,75,0.00,,SKC,0.00,VWS V14.01,2013-01-24 15:58:00,
2013-01-24 11:03:00,16.9,10.1,30.41,NNE,30,3.0,5.0,74,0.00,,SKC,0.00,VWS V14.01,2013-01-24 16:03:00,
2013-01-24 11:08:00,16.9,9.8,30.42,NNW,345,5.0,9.0,73,0.00,,SKC,0.00,VWS V14.01,2013-01-24 16:08:00,
2013-01-24 11:13:00,16.8,9.4,30.42,NW,313,0.0,2.0,72,0.00,,SKC,0.00,VWS V14.01,2013-01-24 16:13:00,
2013-01-24 11:18:00,16.7,8.9,30.43,NNW,340,2.0,2.0,71,0.00,,SKC,0.00,VWS V14.01,2013-01-24 16:18:00,
2013-01-24 11:23:00,16.8,9.0,30.43,ENE,61,0.0,1.0,71,0.00,,SKC,0.00,VWS V14.01,2013-01-24 16:23:00,
2013-01-24 11:28:00,16.8,8.7,30.43,North,360,6.0,7.0,70,0.00,,SKC,0.00,VWS V14.01,2013-01-24 16:28:00,
2013-01-24 11:33:00,16.9,8.5,30.43,WSW,254,0.0,1.0,69,0.00,,SKC,0.00,VWS V14.01,2013-01-24 16:33:00,
2013-01-24 11:38:00,17.0,8.9,30.43,North,355,0.0,2.0,70,0.00,,SKC,0.00,VWS V14.01,2013-01-24 16:38:00,
2013-01-24 11:43:00,17.2,8.8,30.43,WNW,295,6.0,6.0,69,0.00,,SKC,0.00,VWS V14.01,2013-01-24 16:43:00,
2013-01-24 11:48:00,17.3,9.2,30.43,NW,322,0.0,0.0,70,0.00,,SKC,0.00,VWS V14.01,2013-01-24 16:48:00,
2013-01-24 11:53:00,17.6,8.9,30.43,NNW,346,0.0,5.0,68,0.00,,SKC,0.00,VWS V14.01,2013-01-24 16:53:00,
2013-01-24 11:58:00,18.0,7.9,30.42,NW,304,1.0,5.0,64,0.00,,SKC,0.00,VWS V14.01,2013-01-24 16:58:00,
2013-01-24 12:03:00,18.1,8.0,30.43,WNW,298,1.0,8.0,64,0.00,,SKC,0.00,VWS V14.01,2013-01-24 17:03:00,
2013-01-24 12:08:00,18.1,7.6,30.43,NNE,30,0.0,5.0,63,0.00,,SKC,0.00,VWS V14.01,2013-01-24 17:08:00,
2013-01-24 12:13:00,18.0,7.5,30.43,NE,52,0.0,2.0,63,0.00,,SKC,0.00,VWS V14.01,2013-01-24 17:13:00,
2013-01-24 12:18:00,18.3,7.5,30.43,NNE,30,0.0,0.0,62,0.00,,SKC,0.00,VWS V14.01,2013-01-24 17:18:00,
2013-01-24 12:23:00,18.5,7.7,30.43,NE,40,1.0,1.0,62,0.00,,SKC,0.00,VWS V14.01,2013-01-24 17:23:00,
2013-01-24 12:28:00,18.7,6.4,30.43,North,5,1.0,2.0,58,0.00,,SKC,0.00,VWS V14.01,2013-01-24 17:28:00,
2013-01-24 12:33:00,18.8,6.9,30.43,North,355,0.0,1.0,59,0.00,,SKC,0.00,VWS V14.01,2013-01-24 17:33:00,
2013-01-24 12:38:00,18.8,7.2,30.43,NNE,20,0.0,2.0,60,0.00,,SKC,0.00,VWS V14.01,2013-01-24 17:38:00,
2013-01-24 12:43:00,18.9,5.8,30.43,North,360,5.0,7.0,56,0.00,,SKC,0.00,VWS V14.01,2013-01-24 17:43:00,
2013-01-24 12:48:00,18.9,7.3,30.43,North,11,0.0,0.0,60,0.00,,SKC,0.00,VWS V14.01,2013-01-24 17:48:00,
2013-01-24 12:53:00,19.0,7.4,30.44,WSW,252,9.0,9.0,60,0.00,,SKC,0.00,VWS V14.01,2013-01-24 17:53:00,
2013-01-24 12:58:00,18.9,7.3,30.44,NNE,24,8.0,8.0,60,0.00,,SKC,0.00,VWS V14.01,2013-01-24 17:58:00,
2013-01-24 13:03:00,18.5,5.0,30.44,North,355,7.0,8.0,55,0.00,,SKC,0.00,VWS V14.01,2013-01-24 18:03:00,
2013-01-24 13:07:00,18.6,5.9,30.44,SW,233,3.0,3.0,57,0.00,,SKC,0.00,VWS V14.01,2013-01-24 18:07:00,
2013-01-24 13:12:00,18.8,6.9,30.44,WNW,290,2.0,2.0,59,0.00,,SKC,0.00,VWS V14.01,2013-01-24 18:12:00,
2013-01-24 13:17:00,19.0,7.4,30.44,NNW,336,2.0,2.0,60,0.00,,SKC,0.00,VWS V14.01,2013-01-24 18:17:00,
2013-01-24 13:22:00,19.0,7.1,30.43,West,267,0.0,1.0,59,0.00,,SKC,0.00,VWS V14.01,2013-01-24 18:22:00,
2013-01-24 13:27:00,19.1,7.5,30.43,North,5,1.0,1.0,60,0.00,,SKC,0.00,VWS V14.01,2013-01-24 18:27:00,
2013-01-24 13:32:00,19.3,7.7,30.44,NW,304,2.0,4.0,60,0.00,,SKC,0.00,VWS V14.01,2013-01-24 18:32:00,
2013-01-24 13:37:00,19.1,8.6,30.43,ENE,59,0.0,0.0,63,0.00,,SKC,0.00,VWS V14.01,2013-01-24 18:37:00,
2013-01-24 13:42:00,19.0,8.5,30.43,ESE,109,0.0,0.0,63,0.00,,SKC,0.00,VWS V14.01,2013-01-24 18:42:00,
2013-01-24 13:47:00,19.1,8.2,30.43,NNE,29,2.0,2.0,62,0.00,,SKC,0.00,VWS V14.01,2013-01-24 18:47:00,
2013-01-24 13:53:00,19.3,7.7,30.44,NNE,32,2.0,2.0,60,0.00,,SKC,0.00,VWS V14.01,2013-01-24 18:53:00,
2013-01-24 13:58:00,19.4,7.4,30.44,West,272,5.0,7.0,59,0.00,,SKC,0.00,VWS V14.01,2013-01-24 18:58:00,
2013-01-24 14:03:00,19.5,7.5,30.44,NE,43,1.0,1.0,59,0.00,,SKC,0.00,VWS V14.01,2013-01-24 19:03:00,
2013-01-24 14:07:00,19.5,7.1,30.44,WSW,257,0.0,0.0,58,0.00,,SKC,0.00,VWS V14.01,2013-01-24 19:07:00,
2013-01-24 14:13:00,19.4,7.1,30.45,NNE,22,5.0,8.0,58,0.00,,SKC,0.00,VWS V14.01,2013-01-24 19:13:00,
2013-01-24 14:18:00,18.9,6.6,30.45,North,5,0.0,1.0,58,0.00,,SKC,0.00,VWS V14.01,2013-01-24 19:18:00,
2013-01-24 14:22:00,18.8,6.5,30.45,WNW,296,0.0,0.0,58,0.00,,SKC,0.00,VWS V14.01,2013-01-24 19:22:00,
2013-01-24 14:27:00,18.8,6.9,30.45,North,350,0.0,0.0,59,0.00,,SKC,0.00,VWS V14.01,2013-01-24 19:27:00,
2013-01-24 14:32:00,18.8,7.2,30.45,West,281,5.0,5.0,60,0.00,,SKC,0.00,VWS V14.01,2013-01-24 19:32:00,
2013-01-24 14:37:00,18.8,6.9,30.45,NE,36,1.0,1.0,59,0.00,,SKC,0.00,VWS V14.01,2013-01-24 19:37:00,
2013-01-24 14:42:00,18.5,6.2,30.45,NNE,17,0.0,1.0,58,0.00,,SKC,0.00,VWS V14.01,2013-01-24 19:42:00,
2013-01-24 14:47:00,18.2,5.9,30.46,NW,311,0.0,1.0,58,0.00,,SKC,0.00,VWS V14.01,2013-01-24 19:47:00,
2013-01-24 14:52:00,17.9,8.1,30.46,NE,43,0.0,1.0,65,0.00,,SKC,0.00,VWS V14.01,2013-01-24 19:52:00,
2013-01-24 14:57:00,17.8,8.0,30.47,North,355,0.0,0.0,65,0.00,,SKC,0.00,VWS V14.01,2013-01-24 19:57:00,
2013-01-24 15:02:00,17.9,8.1,30.47,West,277,2.0,8.0,65,0.00,,SKC,0.00,VWS V14.01,2013-01-24 20:02:00,
2013-01-24 15:07:00,18.1,7.6,30.48,NW,308,1.0,1.0,63,0.00,,SKC,0.00,VWS V14.01,2013-01-24 20:07:00,
2013-01-24 15:12:00,18.3,7.1,30.48,SW,232,0.0,0.0,61,0.00,,SKC,0.00,VWS V14.01,2013-01-24 20:12:00,
2013-01-24 15:17:00,18.6,7.4,30.47,SSW,205,8.0,8.0,61,0.00,,SKC,0.00,VWS V14.01,2013-01-24 20:17:00,
2013-01-24 15:22:00,18.9,6.9,30.47,WSW,242,1.0,2.0,59,0.00,,SKC,0.00,VWS V14.01,2013-01-24 20:22:00,
2013-01-24 15:27:00,19.1,7.1,30.47,North,360,2.0,2.0,59,0.00,,SKC,0.00,VWS V14.01,2013-01-24 20:27:00,
2013-01-24 15:32:00,19.4,7.4,30.48,NNW,336,0.0,4.0,59,0.00,,SKC,0.00,VWS V14.01,2013-01-24 20:32:00,
2013-01-24 15:37:00,19.4,6.7,30.47,WSW,252,2.0,2.0,57,0.00,,SKC,0.00,VWS V14.01,2013-01-24 20:37:00,
2013-01-24 15:42:00,19.3,6.6,30.48,NNE,30,0.0,0.0,57,0.00,,SKC,0.00,VWS V14.01,2013-01-24 20:42:00,
2013-01-24 15:47:00,19.1,6.0,30.48,SW,227,0.0,0.0,56,0.00,,SKC,0.00,VWS V14.01,2013-01-24 20:47:00,
2013-01-24 15:52:00,18.9,5.8,30.48,NNW,333,0.0,0.0,56,0.00,,SKC,0.00,VWS V14.01,2013-01-24 20:52:00,
2013-01-24 15:57:00,18.8,6.1,30.49,WNW,298,4.0,6.0,57,0.00,,SKC,0.00,VWS V14.01,2013-01-24 20:57:00,
2013-01-24 16:02:00,18.6,5.9,30.49,NNW,345,0.0,5.0,57,0.00,,SKC,0.00,VWS V14.01,2013-01-24 21:02:00,
2013-01-24 16:07:00,18.6,6.3,30.49,WSW,242,0.0,0.0,58,0.00,,SKC,0.00,VWS V14.01,2013-01-24 21:07:00,
2013-01-24 16:12:00,18.4,5.7,30.48,WNW,296,1.0,7.0,57,0.00,,SKC,0.00,VWS V14.01,2013-01-24 21:12:00,
2013-01-24 16:17:00,18.3,6.0,30.48,WNW,285,1.0,4.0,58,0.00,,SKC,0.00,VWS V14.01,2013-01-24 21:17:00,
2013-01-24 16:22:00,18.1,5.4,30.49,NNW,336,0.0,0.0,57,0.00,,SKC,0.00,VWS V14.01,2013-01-24 21:22:00,
2013-01-24 16:27:00,18.0,5.0,30.49,West,275,0.0,0.0,56,0.00,,SKC,0.00,VWS V14.01,2013-01-24 21:27:00,
2013-01-24 16:32:00,17.9,5.2,30.49,NNW,341,0.0,0.0,57,0.00,,SKC,0.00,VWS V14.01,2013-01-24 21:32:00,
2013-01-24 16:37:00,17.9,5.6,30.50,NNE,17,3.0,5.0,58,0.00,,SKC,0.00,VWS V14.01,2013-01-24 21:37:00,
2013-01-24 16:42:00,17.8,5.9,30.49,WNW,292,0.0,0.0,59,0.00,,SKC,0.00,VWS V14.01,2013-01-24 21:42:00,
2013-01-24 16:47:00,17.8,5.5,30.50,NNW,335,0.0,0.0,58,0.00,,SKC,0.00,VWS V14.01,2013-01-24 21:47:00,
2013-01-24 16:52:00,17.7,5.4,30.50,NW,304,0.0,0.0,58,0.00,,SKC,0.00,VWS V14.01,2013-01-24 21:52:00,
2013-01-24 16:57:00,17.7,5.4,30.50,West,263,5.0,9.0,58,0.00,,SKC,0.00,VWS V14.01,2013-01-24 21:57:00,
2013-01-24 17:02:00,17.7,5.1,30.51,NNW,337,0.0,0.0,57,0.00,,SKC,0.00,VWS V14.01,2013-01-24 22:02:00,
2013-01-24 17:07:00,17.7,5.8,30.51,NNW,345,0.0,0.0,59,0.00,,SKC,0.00,VWS V14.01,2013-01-24 22:07:00,
2013-01-24 17:12:00,17.6,5.3,30.50,WNW,286,0.0,0.0,58,0.00,,SKC,0.00,VWS V14.01,2013-01-24 22:12:00,
2013-01-24 17:17:00,17.5,4.9,30.51,NW,311,0.0,0.0,57,0.00,,SKC,0.00,VWS V14.01,2013-01-24 22:17:00,
2013-01-24 17:22:00,17.4,4.8,30.51,WNW,299,0.0,1.0,57,0.00,,SKC,0.00,VWS V14.01,2013-01-24 22:22:00,
2013-01-24 17:27:00,17.3,5.1,30.51,North,5,0.0,0.0,58,0.00,,SKC,0.00,VWS V14.01,2013-01-24 22:27:00,
2013-01-24 17:32:00,17.1,4.9,30.52,NNE,24,0.0,1.0,58,0.00,,SKC,0.00,VWS V14.01,2013-01-24 22:32:00,
2013-01-24 17:37:00,17.0,4.8,30.52,NNE,13,0.0,0.0,58,0.00,,SKC,0.00,VWS V14.01,2013-01-24 22:37:00,
2013-01-24 17:42:00,16.8,4.6,30.53,NE,39,0.0,0.0,58,0.00,,SKC,0.00,VWS V14.01,2013-01-24 22:42:00,
2013-01-24 17:47:00,16.7,4.9,30.54,North,5,0.0,0.0,59,0.00,,SKC,0.00,VWS V14.01,2013-01-24 22:47:00,
2013-01-24 17:52:00,16.4,4.6,30.54,NNE,28,0.0,0.0,59,0.00,,SKC,0.00,VWS V14.01,2013-01-24 22:52:00,
2013-01-24 17:57:00,16.3,5.2,30.54,North,5,0.0,0.0,61,0.00,,SKC,0.00,VWS V14.01,2013-01-24 22:57:00,
2013-01-24 18:02:00,16.1,5.0,30.54,North,360,1.0,1.0,61,0.00,,SKC,0.00,VWS V14.01,2013-01-24 23:02:00,
2013-01-24 18:07:00,15.9,5.2,30.54,NNE,13,0.0,1.0,62,0.00,,SKC,0.00,VWS V14.01,2013-01-24 23:07:00,
2013-01-24 18:12:00,15.8,5.1,30.54,North,9,0.0,0.0,62,0.00,,SKC,0.00,VWS V14.01,2013-01-24 23:12:00,
2013-01-24 18:17:00,15.7,5.0,30.54,North,5,2.0,2.0,62,0.00,,SKC,0.00,VWS V14.01,2013-01-24 23:17:00,
2013-01-24 18:22:00,15.5,5.2,30.54,NNE,30,0.0,0.0,63,0.00,,SKC,0.00,VWS V14.01,2013-01-24 23:22:00,
2013-01-24 18:27:00,15.4,5.1,30.55,NNE,27,0.0,0.0,63,0.00,,SKC,0.00,VWS V14.01,2013-01-24 23:27:00,
2013-01-24 18:32:00,15.3,5.3,30.55,NE,44,0.0,0.0,64,0.00,,SKC,0.00,VWS V14.01,2013-01-24 23:32:00,
2013-01-24 18:37:00,15.2,5.2,30.56,NNE,19,0.0,0.0,64,0.00,,SKC,0.00,VWS V14.01,2013-01-24 23:37:00,
2013-01-24 18:42:00,15.1,5.1,30.56,NNW,347,0.0,0.0,64,0.00,,SKC,0.00,VWS V14.01,2013-01-24 23:42:00,
2013-01-24 18:47:00,15.0,5.0,30.56,NNW,347,0.0,0.0,64,0.00,,SKC,0.00,VWS V14.01,2013-01-24 23:47:00,
2013-01-24 18:52:00,14.8,4.8,30.56,NNW,347,0.0,0.0,64,0.00,,SKC,0.00,VWS V14.01,2013-01-24 23:52:00,
2013-01-24 18:57:00,14.8,4.8,30.56,NNW,347,0.0,0.0,64,0.00,,SKC,0.00,VWS V14.01,2013-01-24 23:57:00,
2013-01-24 19:02:00,14.6,4.7,30.57,NNW,347,0.0,0.0,64,0.00,,SKC,0.00,VWS V14.01,2013-01-25 00:02:00,
2013-01-24 19:07:00,14.4,4.5,30.57,NNW,347,0.0,0.0,64,0.00,,SKC,0.00,VWS V14.01,2013-01-25 00:07:00,
2013-01-24 19:12:00,14.3,4.7,30.58,NNW,347,0.0,0.0,65,0.00,,SKC,0.00,VWS V14.01,2013-01-25 00:12:00,
2013-01-24 19:17:00,14.0,4.4,30.58,NNE,21,3.0,3.0,65,0.00,,SKC,0.00,VWS V14.01,2013-01-25 00:17:00,
2013-01-24 19:22:00,13.8,4.2,30.57,NNE,22,0.0,0.0,65,0.00,,SKC,0.00,VWS V14.01,2013-01-25 00:22:00,
2013-01-24 19:27:00,13.7,6.4,30.58,SSE,168,0.0,0.0,72,0.00,,SKC,0.00,VWS V14.01,2013-01-25 00:27:00,
2013-01-24 19:32:00,13.6,4.4,30.58,WNW,290,0.0,0.0,66,0.00,,SKC,0.00,VWS V14.01,2013-01-25 00:32:00,
2013-01-24 19:37:00,13.5,4.3,30.57,WNW,292,0.0,0.0,66,0.00,,SKC,0.00,VWS V14.01,2013-01-25 00:37:00,
2013-01-24 19:42:00,13.4,4.2,30.57,NE,49,1.0,1.0,66,0.00,,SKC,0.00,VWS V14.01,2013-01-25 00:42:00,
2013-01-24 19:47:00,13.3,4.1,30.57,NNE,17,0.0,0.0,66,0.00,,SKC,0.00,VWS V14.01,2013-01-25 00:47:00,
2013-01-24 19:52:00,13.2,4.0,30.57,North,9,0.0,0.0,66,0.00,,SKC,0.00,VWS V14.01,2013-01-25 00:52:00,
2013-01-24 19:57:00,13.1,3.9,30.57,North,9,0.0,0.0,66,0.00,,SKC,0.00,VWS V14.01,2013-01-25 00:57:00,
2013-01-24 20:02:00,13.1,3.9,30.57,North,9,0.0,0.0,66,0.00,,SKC,0.00,VWS V14.01,2013-01-25 01:02:00,
2013-01-24 20:07:00,13.0,3.8,30.57,North,355,0.0,0.0,66,0.00,,SKC,0.00,VWS V14.01,2013-01-25 01:07:00,
2013-01-24 20:12:00,12.9,3.7,30.57,North,355,0.0,0.0,66,0.00,,SKC,0.00,VWS V14.01,2013-01-25 01:12:00,
2013-01-24 20:17:00,12.8,3.6,30.57,North,355,0.0,0.0,66,0.00,,SKC,0.00,VWS V14.01,2013-01-25 01:17:00,
2013-01-24 20:22:00,12.8,3.9,30.57,North,355,0.0,0.0,67,0.00,,SKC,0.00,VWS V14.01,2013-01-25 01:22:00,
2013-01-24 20:27:00,12.7,3.5,30.57,North,355,0.0,0.0,66,0.00,,SKC,0.00,VWS V14.01,2013-01-25 01:27:00,
2013-01-24 20:32:00,12.5,3.6,30.57,North,355,0.0,0.0,67,0.00,,SKC,0.00,VWS V14.01,2013-01-25 01:32:00,
2013-01-24 20:37:00,12.4,3.5,30.57,North,355,0.0,0.0,67,0.00,,SKC,0.00,VWS V14.01,2013-01-25 01:37:00,
2013-01-24 20:42:00,12.3,3.5,30.57,North,360,0.0,0.0,67,0.00,,SKC,0.00,VWS V14.01,2013-01-25 01:42:00,
2013-01-24 20:47:00,12.1,3.3,30.57,North,360,0.0,0.0,67,0.00,,SKC,0.00,VWS V14.01,2013-01-25 01:47:00,
2013-01-24 20:52:00,12.0,3.5,30.57,North,360,0.0,0.0,68,0.00,,SKC,0.00,VWS V14.01,2013-01-25 01:52:00,
2013-01-24 20:57:00,11.9,3.4,30.57,North,360,0.0,0.0,68,0.00,,SKC,0.00,VWS V14.01,2013-01-25 01:57:00,
2013-01-24 21:02:00,11.8,3.3,30.57,North,360,0.0,0.0,68,0.00,,SKC,0.00,VWS V14.01,2013-01-25 02:02:00,
2013-01-24 21:07:00,11.8,3.6,30.57,North,360,0.0,0.0,69,0.00,,SKC,0.00,VWS V14.01,2013-01-25 02:07:00,
2013-01-24 21:12:00,11.8,3.6,30.56,North,360,0.0,0.0,69,0.00,,SKC,0.00,VWS V14.01,2013-01-25 02:12:00,
2013-01-24 21:17:00,11.7,3.5,30.56,North,360,0.0,0.0,69,0.00,,SKC,0.00,VWS V14.01,2013-01-25 02:17:00,
2013-01-24 21:22:00,11.6,3.4,30.57,North,360,0.0,0.0,69,0.00,,SKC,0.00,VWS V14.01,2013-01-25 02:22:00,
2013-01-24 21:27:00,11.6,3.4,30.57,North,360,0.0,0.0,69,0.00,,SKC,0.00,VWS V14.01,2013-01-25 02:27:00,
2013-01-24 21:32:00,11.6,3.4,30.57,North,360,0.0,0.0,69,0.00,,SKC,0.00,VWS V14.01,2013-01-25 02:32:00,
2013-01-24 21:37:00,11.6,3.4,30.57,North,360,0.0,0.0,69,0.00,,SKC,0.00,VWS V14.01,2013-01-25 02:37:00,
2013-01-24 21:42:00,11.5,3.3,30.56,North,360,0.0,0.0,69,0.00,,SKC,0.00,VWS V14.01,2013-01-25 02:42:00,
2013-01-24 21:47:00,11.5,3.3,30.56,North,360,0.0,0.0,69,0.00,,SKC,0.00,VWS V14.01,2013-01-25 02:47:00,
2013-01-24 21:52:00,11.5,3.3,30.56,North,360,0.0,0.0,69,0.00,,SKC,0.00,VWS V14.01,2013-01-25 02:52:00,
2013-01-24 21:57:00,11.4,2.9,30.56,North,360,0.0,0.0,68,0.00,,SKC,0.00,VWS V14.01,2013-01-25 02:57:00,
2013-01-24 22:02:00,11.4,3.2,30.56,North,360,0.0,0.0,69,0.00,,SKC,0.00,VWS V14.01,2013-01-25 03:02:00,
2013-01-24 22:07:00,11.4,2.9,30.56,North,360,0.0,0.0,68,0.00,,SKC,0.00,VWS V14.01,2013-01-25 03:07:00,
2013-01-24 22:12:00,11.4,3.2,30.56,North,360,0.0,0.0,69,0.00,,SKC,0.00,VWS V14.01,2013-01-25 03:12:00,
2013-01-24 22:17:00,11.4,3.2,30.56,North,360,0.0,0.0,69,0.00,,SKC,0.00,VWS V14.01,2013-01-25 03:17:00,
2013-01-24 22:22:00,11.4,2.9,30.55,North,360,0.0,0.0,68,0.00,,SKC,0.00,VWS V14.01,2013-01-25 03:22:00,
2013-01-24 22:27:00,11.4,2.9,30.55,North,360,0.0,0.0,68,0.00,,SKC,0.00,VWS V14.01,2013-01-25 03:27:00,
2013-01-24 22:32:00,11.4,2.9,30.55,North,360,0.0,0.0,68,0.00,,SKC,0.00,VWS V14.01,2013-01-25 03:32:00,
2013-01-24 22:37:00,11.4,2.9,30.56,North,360,0.0,0.0,68,0.00,,SKC,0.00,VWS V14.01,2013-01-25 03:37:00,
2013-01-24 22:42:00,11.4,2.9,30.56,North,360,0.0,0.0,68,0.00,,SKC,0.00,VWS V14.01,2013-01-25 03:42:00,
2013-01-24 22:47:00,11.3,2.5,30.56,North,360,0.0,0.0,67,0.00,,SKC,0.00,VWS V14.01,2013-01-25 03:47:00,
2013-01-24 22:52:00,11.3,2.5,30.56,North,360,0.0,0.0,67,0.00,,SKC,0.00,VWS V14.01,2013-01-25 03:52:00,
2013-01-24 22:57:00,11.3,2.5,30.56,North,360,0.0,0.0,67,0.00,,SKC,0.00,VWS V14.01,2013-01-25 03:57:00,
2013-01-24 23:02:00,11.3,2.5,30.56,North,360,0.0,0.0,67,0.00,,SKC,0.00,VWS V14.01,2013-01-25 04:02:00,
2013-01-24 23:07:00,11.3,2.5,30.56,North,360,0.0,0.0,67,0.00,,SKC,0.00,VWS V14.01,2013-01-25 04:07:00,
2013-01-24 23:12:00,11.3,2.8,30.56,North,360,0.0,0.0,68,0.00,,SKC,0.00,VWS V14.01,2013-01-25 04:12:00,
2013-01-24 23:17:00,11.3,2.8,30.57,North,360,0.0,0.0,68,0.00,,SKC,0.00,VWS V14.01,2013-01-25 04:17:00,
2013-01-24 23:22:00,11.3,2.8,30.57,North,360,0.0,0.0,68,0.00,,SKC,0.00,VWS V14.01,2013-01-25 04:22:00,
2013-01-24 23:27:00,11.3,2.8,30.57,North,360,0.0,0.0,68,0.00,,SKC,0.00,VWS V14.01,2013-01-25 04:27:00,
2013-01-24 23:32:00,11.2,2.7,30.56,North,360,0.0,0.0,68,0.00,,SKC,0.00,VWS V14.01,2013-01-25 04:32:00,
2013-01-24 23:37:00,11.2,2.7,30.56,North,360,0.0,0.0,68,0.00,,SKC,0.00,VWS V14.01,2013-01-25 04:37:00,
2013-01-24 23:42:00,11.2,2.7,30.56,North,360,0.0,0.0,68,0.00,,SKC,0.00,VWS V14.01,2013-01-25 04:42:00,
2013-01-24 23:47:00,11.1,2.9,30.55,North,360,0.0,0.0,69,0.00,,SKC,0.00,VWS V14.01,2013-01-25 04:47:00,
2013-01-24 23:52:00,11.0,2.8,30.55,North,360,0.0,0.0,69,0.00,,SKC,0.00,VWS V14.01,2013-01-25 04:52:00,
2013-01-24 23:57:00,11.0,2.8,30.55,North,360,0.0,0.0,69,0.00,,SKC,0.00,VWS V14.01,2013-01-25 04:57:00,